Regional Weather Roundup
Issued by NWS

Home | Current Version | Previous Version | Text Only | Print | Product List | Glossary Off
Versions: 1 2 3 4 5 6 7 8 9 10 11 12 13 14 15 16 17 18 19 20 21 22 23 24 25 26 27 28 29 30 31 32 33 34 35 36 37 38 39 40 41 42 43 44 45 46 47 48 49 50

000
ASUS45 KTFX 020604
RWRMT
MONTANA HOURLY WEATHER ROUNDUP
NATIONAL WEATHER SERVICE GREAT FALLS MT
1104 PM MST SUN MAR 1 2015

NOTE: "FAIR" INDICATES FEW OR NO CLOUDS BELOW 12000 FEET WITH NO
SIGNIFICANT WEATHER AND/OR OBSTRUCTIONS TO VISIBILITY.

* THESE STATIONS ARE NOT UNDER NWS QUALITY CONTROL. THEY DO NOT
   REPORT WEATHER SUCH AS PRECIPITATION OR FOG.

MTZ001>007-043-020700-
WEST OF THE DIVIDE
CITY           SKY/WX    TMP DP  RH WIND       PRES   REMARKS
KALISPELL      MOCLDY    19  14  81 CALM      29.95F
MISSOULA       MOCLDY    27  12  53 E3        29.97F
BUTTE          CLEAR     16   9  74 SE5       29.93S WCI   8
MULLAN PASS    MOCLDY    23   1  38 SW7       29.84F WCI  15
* ANACONDA     CLEAR     18   7  62 S7         N/A   WCI   9
* ESSEX        N/A       16   7  67 N/A        N/A
* LINCOLN      N/A       19  10  68 E1         N/A
* LOOKOUT PASS N/A       23   9  55 N/A        N/A
* POLSON       N/A       25   6  44 N/A        N/A
* RONAN APT    PTCLDY    27  19  72 N/A        N/A
* SEELEY LAKE  N/A       15   8  74 N/A        N/A
* THOMP F APT  PTCLDY    19  -5  34 NE3        N/A
$$

MTZ008-052>055-020700-
SOUTHWEST MONTANA
CITY           SKY/WX    TMP DP  RH WIND       PRES   REMARKS
BOZEMAN        PTCLDY    18  10  71 E3        29.98F
DILLON         PTCLDY    19   3  49 S8        29.94F WCI   9
* W YELLOWSTON PTCLDY     3  -6  66 N/A        N/A
* THREE FORKS  PTCLDY    18   9  68 N/A        N/A
* BOULDER HILL N/A       18   0  45 SW10       N/A   WCI   6
* MONIDA PASS  N/A       13  -3  48 E2         N/A
* RAYNOLDS PAS N/A        9  -4  55 S5         N/A
* WHITEHALL    N/A       17   2  51 N5         N/A   WCI   9
* WISE RIVER   N/A       15   2  56 SW3G9      N/A
$$

MTZ009>010-012-014-046-048-049-054-020700-
EAST SLOPES AND CENTRAL MONTANA
CITY           SKY/WX    TMP DP  RH WIND       PRES   REMARKS
CUT BANK       PTCLDY    27   9  46 SW7       29.83F WCI  19
GREAT FALLS    MOCLDY    30  10  43 S14       29.87F WCI  19
HELENA         PTCLDY    23  12  63 W3        29.95F
* DEARBORN     N/A       31   9  40 S12G17     N/A   WCI  22
* EAST GLACIER N/A       26   3  37 W27G35     N/A   WCI  10
* MONARCH      N/A       23  -3  32 S15G21     N/A   WCI  10
* PENDROY      N/A       26  17  69 SW3        N/A
* ROGERS PASS  N/A       23   3  42 E9G16      N/A   WCI  13
* SWEET GRASS  N/A       21  15  78 S14        N/A   WCI   8
$$

MTZ011-013-016-021-035-040-045-047-050-051-020700-
NORTH CENTRAL MONTANA
CITY           SKY/WX    TMP DP  RH WIND       PRES   REMARKS
HAVRE          PTCLDY    21   9  60 NE6       29.92F WCI  13
LEWISTOWN      MOCLDY    14   5  67 SE5       29.92F WCI   6
* N BAR RANCH  CLEAR     25   9  50 SW22G30   29.92F WCI  10
* CHESTER      N/A       23  12  63 S8         N/A   WCI  14
* DENTON       N/A       26   8  46 S24G29     N/A   WCI  11
* GEYSER       N/A       14   7  73 SE6        N/A   WCI   5
* JUDITH GAP   N/A       14   7  73 S8         N/A   WCI   3
* LOMA         N/A       23  13  65 NE9        N/A   WCI  13
$$

MTZ017>020-022>027-061-062-020700-
NORTHEAST MONTANA
CITY           SKY/WX    TMP DP  RH WIND       PRES   REMARKS
GLASGOW        CLEAR     16   9  74 SE14      30.11F WCI   2
GLENDIVE       CLEAR     12   9  88 CALM      30.20F
JORDAN         CLEAR     18   9  68 SE10      30.08F WCI   6
SIDNEY         CLEAR     12   3  67 CALM      30.25F
WOLF POINT     CLEAR     10   7  88 N3        30.18F
* BEAVER HILL  N/A       13   8  80 SE16       N/A   WCI  -3
* CIRCLE       N/A       14   8  77 E2         N/A
* LINDSAY DVD  N/A        9   4  80 SE6        N/A   WCI  -1
* NAVAJO       N/A        8   4  84 S10        N/A   WCI  -6
* SACO         N/A       22   9  57 SE14G19    N/A   WCI   9
$$

MTZ028>042-056>058-020700-
SOUTHCENTRAL AND SOUTHEAST MONTANA
CITY           SKY/WX    TMP DP  RH WIND       PRES   REMARKS
BAKER          CLEAR      9   3  76 S13       30.20F WCI  -7
BILLINGS       PTCLDY    21   5  50 CALM      30.03F
LIVINGSTON     PTCLDY    14   7  73 NW9       29.97F WCI   2
MILES CITY     CLEAR     16   9  74 SE10      30.15F WCI   4
* LAUREL APT   PTCLDY    25   3  38 SE8        N/A   WCI  16
* ROUNDUP APT  PTCLDY    19   0  43 N/A        N/A
* ALZADA       N/A        6   1  80 SE6        N/A   WCI  -5
* HYSHAM       N/A       23   3  42 S7G20      N/A   WCI  15
* LAME DEER    N/A       15   4  61 SE11       N/A   WCI   2
* REED POINT   N/A       16  11  81 W4         N/A
* ROSCOE HILL  N/A       16  -4  40 S4         N/A
$$

REGIONAL REPORTS...DAKOTAS
CITY           SKY/WX    TMP DP  RH WIND       PRES   REMARKS
WILLISTON      PTCLDY    12   9  88 SE6       30.24F WCI   2
DICKINSON      PTCLDY     5   1  83 S8        30.23F WCI  -8
CROSBY         CLEAR      3   0  87 S12       30.23F WCI -14
WATFORD CITY   CLEAR      3   0  87 CALM      30.23F
BISMARCK       PTCLDY     3   0  87 CALM      30.36F
GRAND FORKS    CLEAR      3   0  87 W8        30.37R WCI -10
FARGO          CLEAR      9   1  70 W9        30.40S WCI  -4
BUFFALO SD     PTCLDY     9   3  76 SE7       30.15F WCI  -2
RAPID CITY     PTCLDY    12   7  80 S5        30.26F WCI   4
$$

REGIONAL REPORTS...WYOMING/IDAHO/WASHINGTON
CITY           SKY/WX    TMP DP  RH WIND       PRES   REMARKS
GILLETTE       CLEAR     18   9  68 S13       30.09F WCI   5
SHERIDAN       PTCLDY    10   3  73 SW3       30.05F
CODY           PTCLDY    14   9  80 S8        30.01F WCI   3
YELLOWSTONE LA PTCLDY    -6  -9  87 NW3       29.99F
SALMON         CLEAR     21  12  68 SE3       29.98S
MULLAN PASS    MOCLDY    23   1  38 SW7       29.84S WCI  15
SAND POINT     PTCLDY    28  19  69 CALM      29.96F
SPOKANE        CLOUDY    34  16  48 CALM      29.93F

$$



USA.gov is the U.S. government's official web portal to all federal, state and local government web resources and services.